Location: Aldenham
(51.6667°N, 0.3500°W)
Time: 01:44:48
(UTC+00:00)

Cosmos 220 Rocket - Pass Details

Date: 18 November 2025
Orbit: 541 x 577 km, 74.0° (Epoch: 13 December)

Event Time Altitude Azimuth Distance (km) Brightness Sun altitude
Rises 18:04:55 0° 338° (NNW) 2,747 7.6 -17.9°
Reaches altitude 10° 18:07:11 10° 345° (NNW) 1,854 6.6 -18.2°
Maximum altitude 18:11:09 44° 59° (ENE) 785 4.1 -18.8°
Enters shadow 18:11:10 44° 59° (ENE) 785 4.1 -18.8°
